This demonstration page uses our WeatherBlox Daily Observations layout. Learn more.

41.55636, -103.73856

Hourly Observations for December 30, 2016

Temp ( °F °C ) Dew Point ( °F °C ) Humidity (%) Winds ( mph kmh ) Pressure ( in mb ) Visibility ( mi km ) Precip ( " mm )
12:53 am 00:53 Clear 22 -5.6 13 -10.6 68 68 NW 6 9 30.14 1021 10 16.0934 0 0
1:53 am 01:53 Clear 22 -5.6 12 -11.1 66 66 NNW 3 6 30.12 1020 10 16.0934 0 0
2:53 am 02:53 Clear 28 -2.2 14 -10 56 56 WNW 8 13 30.08 1019 10 16.0934 0 0
3:53 am 03:53 Clear 36 2.2 15 -9.4 42 42 WNW 10 17 30.02 1017 10 16.0934 0 0
4:53 am 04:53 Clear 35 1.7 15 -9.4 44 44 WNW 12 19 30.01 1016 10 16.0934 0 0
5:53 am 05:53 Clear 29 -1.7 15 -9.4 56 56 NNW 7 11 29.99 1016 10 16.0934 0 0
6:53 am 06:53 Clear 25 -3.9 14 -10 63 63 N 5 7 29.98 1015 10 16.0934 0 0
7:53 am 07:53 Sunny 32 0 15 -9.4 50 50 NW 6 9 29.93 1014 10 16.0934 0 0
8:53 am 08:53 Sunny 36 2.2 19 -7.2 50 50 NNW 8 13 29.92 1013 10 16.0934 0 0
9:53 am 09:53 Sunny 42 5.6 21 -6.1 43 43 NW 5 7 29.87 1012 10 16.0934 0 0
10:53 am 10:53 Sunny 47 8.3 19 -7.2 33 33 undefined N/A 29.83 1010 10 16.0934 0 0
11:53 am 11:53 Sunny 48 8.9 20 -6.7 33 33 NW 9 15 29.79 1009 10 16.0934 0 0
12:53 pm 12:53 Sunny 49 9.4 22 -5.6 35 35 NW 8 13 29.75 1007 10 16.0934 0 0
1:53 pm 13:53 Sunny 53 11.7 17 -8.3 24 24 W 8 13 29.71 1006 10 16.0934 0 0
2:53 pm 14:53 Sunny 52 11.1 16 -8.9 24 24 WNW 7 11 29.68 1005 10 16.0934 0 0
3:53 pm 15:53 Sunny 50 10 17 -8.3 27 27 W 14 22 29.66 1004 10 16.0934 0 0
4:53 pm 16:53 Clear 48 8.9 17 -8.3 29 29 W 10 17 29.66 1004 10 16.0934 0 0
5:20 pm 17:20 Clear 43 6 21 -6 42 42 N 15 24 29.71 1006 10 16.0934 0 0
5:53 pm 17:53 Clear 38 3.3 23 -5 55 55 NNE 8 13 29.75 1007 10 16.0934 0 0
6:53 pm 18:53 Clear 34 1.1 23 -5 64 64 NNE 9 15 29.8 1009 10 16.0934 0 0
7:53 pm 19:53 Clear 30 -1.1 21 -6.1 69 69 N 7 11 29.82 1010 10 16.0934 0 0
8:53 pm 20:53 Clear 28 -2.2 20 -6.7 72 72 N 3 6 29.85 1011 10 16.0934 0 0
9:53 pm 21:53 Mostly Cloudy 25 -3.9 20 -6.7 81 81 NW 6 9 29.86 1011 10 16.0934 0 0
10:34 pm 22:34 Cloudy 27 -3 21 -6 80 80 W 5 7 29.97 1015 10 16.0934 0 0
10:53 pm 22:53 Cloudy 27 -2.8 22 -5.6 81 81 WNW 7 11 29.85 1011 10 16.0934 0 0
11:53 pm 23:53 Cloudy 29 -1.7 20 -6.7 69 69 WNW 8 13 29.85 1011 10 16.0934 0 0

Powered by AerisWeather